Temp
60 58 58 56 57 62 66 64 61 57 60 67 64 66 67 67 66 67 69 61 62 61 61 60 59 59 59 58 58 57 57 58 58 58 58 58 59 60
59 57 54 55 54 57 58 63 65 65 62 66 64 64 65 65 61 66 62 61 60 60 59 58 58 58 57 57 56 56 56 56 56 57 57 57 58 58
56 55 53 54 53 53 53 55 57 59 61 59 61 61 59 57 55 53 55 55 55 57 58 57 57 57 56 56 55 56 56 55 55 55 56 56 56 57
53 53 52 54 52 53 53 53 54 56 53 49 46 46 47 50 49 49 52 53 52 54 56 58 58 57 56 55 55 55 54 53 53 54 54 55 55 55
54 54 53 53 51 51 52 51 52 51 51 48 44 45 45 46 45 46 47 49 53 53 54 55 55 57 55 55 54 53 52 52 52 52 53 53 54 54
53 53 53 53 52 51 51 50 50 49 49 47 45 43 44 44 44 43 43 46 49 54 52 51 51 53 53 52 53 52 51 51 51 51 51 51 51 52
52 52 52 53 55 52 50 49 49 47 46 44 43 44 43 43 45 49 51 53 53 55 55 56 55 56 55 51 51 51 52 51 51 50 50 50 50 51
51 52 54 55 54 54 54 53 53 48 47 47 50 52 50 51 52 53 53 50 49 53 51 53 53 53 54 55 49 49 51 49 49 49 50 49 49 50
49 49 50 52 53 54 56 55 54 53 55 57 53 53 52 52 53 51 51 50 50 52 49 49 53 50 54 54 47 49 49 48 48 48 48 49 49 50
49 50 53 55 56 57 56 55 55 55 55 55 54 52 52 52 51 50 49 49 50 51 50 45 50 49 53 53 47 47 48 48 48 48 48 48 48 49
57 58 57 56 52 54 55 53 52 51 52 51 50 49 49 49 49 51 47 47 45 45 47 46 47 47 50 50 52 46 46 46 47 47 48 47 47 48
56 55 52 53 51 52 55 53 51 51 52 52 52 51 52 49 48 51 49 45 44 43 46 44 43 43 42 49 49 49 51 48 47 46 46 46 46 48
55 54 53 50 50 49 51 54 51 53 50 52 52 52 52 52 52 51 50 47 42 41 46 46 43 42 41 40 44 47 49 49 49 49 48 45 44 45
53 54 52 51 50 50 51 49 48 49 51 52 51 50 49 50 50 49 48 48 49 46 48 47 42 42 40 38 38 45 46 47 46 46 46 47 46 46
54 50 49 49 49 48 47 47 48 51 50 49 48 48 48 49 49 47 48 48 48 48 49 48 45 44 41 38 38 40 40 44 46 44 46 46 46 47
49 50 48 48 47 47 48 49 50 49 48 47 47 47 46 45 44 45 43 44 43 43 47 48 47 45 41 41 40 39 41 38 43 44 44 44 46 48
49 49 48 48 47 47 47 47 47 48 47 47 46 44 42 42 42 43 42 41 40 39 40 44 46 45 45 43 39 41 40 39 41 41 41 39 44 45
49 48 47 48 47 46 46 46 46 45 45 45 41 40 39 39 39 40 41 40 38 38 38 41 41 39 40 43 44 40 39 39 40 39 40 38 40 45
49 48 47 46 46 46 46 46 44 44 44 43 42 40 39 40 38 37 38 37 37 38 39 39 37 35 32 32 40 41 38 39 39 38 39 40 39 43
48 46 46 46 46 45 45 44 44 43 42 41 40 39 37 36 35 34 35 36 36 36 36 38 37 35 32 32 33 39 41 40 39 37 38 40 43 44
47 46 47 46 45 45 44 43 43 43 42 41 39 38 37 35 34 35 35 35 35 34 33 34 37 41 40 39 34 35 42 41 41 39 39 37 37 38
47 46 46 46 45 44 43 43 43 43 42 40 38 38 37 37 35 35 34 33 33 34 35 37 39 39 38 35 33 35 40 43 44 42 40 39 36 30
47 46 45 45 44 44 43 42 43 42 39 37 37 36 36 35 36 35 34 34 34 34 35 35 37 38 37 37 37 37 38 40 40 40 42 42 40 41
MSLP
1017.72 1018.21 1019.04 1019.56 1019.78 1019.77 1019.57 1019.62 1019.76 1020.26 1020.60 1020.74 1021.65 1022.23 1022.49 1022.85 1023.03 1023.16 1023.01 1023.74 1023.87 1024.23 1024.48 1024.69 1024.88 1025.02 1025.04 1025.10 1025.24 1025.38 1025.36 1025.23 1025.05 1024.88 1024.74 1024.57 1024.41 1024.15
1017.29 1017.88 1018.77 1019.51 1019.68 1020.06 1019.97 1020.24 1020.01 1020.07 1020.56 1021.23 1021.96 1022.51 1022.53 1022.98 1023.44 1023.36 1023.78 1023.96 1024.34 1024.49 1024.64 1024.87 1025.01 1025.10 1025.07 1025.23 1025.33 1025.32 1025.40 1025.35 1025.26 1025.05 1024.80 1024.79 1024.67 1024.39
1017.04 1017.60 1018.38 1019.11 1019.79 1019.93 1020.15 1020.81 1020.49 1020.67 1021.04 1022.18 1022.72 1022.95 1023.24 1023.42 1024.04 1024.28 1024.30 1024.55 1024.74 1024.94 1024.90 1024.94 1025.02 1025.04 1025.19 1025.30 1025.30 1025.31 1025.30 1025.32 1025.28 1025.26 1025.00 1024.92 1024.74 1024.66
1017.37 1017.99 1018.39 1018.88 1019.34 1020.10 1020.73 1021.18 1020.95 1021.42 1021.52 1022.50 1023.17 1023.65 1024.05 1024.32 1024.51 1024.65 1024.77 1024.87 1024.95 1025.00 1024.97 1024.91 1024.92 1025.12 1025.26 1025.29 1025.17 1025.20 1025.26 1025.21 1025.22 1025.34 1025.29 1025.22 1024.92 1024.86
1017.48 1018.01 1018.51 1018.76 1019.71 1020.44 1021.06 1021.31 1021.63 1021.84 1021.92 1022.53 1023.41 1024.01 1024.33 1024.65 1025.01 1025.17 1025.24 1025.14 1025.08 1025.13 1025.10 1024.91 1024.95 1024.94 1025.12 1025.14 1025.17 1025.24 1025.28 1025.34 1025.42 1025.49 1025.47 1025.33 1025.25 1025.15
1018.01 1018.46 1018.91 1019.10 1019.86 1020.59 1021.13 1021.67 1022.11 1022.35 1022.53 1022.84 1023.56 1024.03 1024.49 1024.96 1025.05 1025.17 1025.37 1025.29 1024.99 1024.94 1025.23 1025.26 1025.22 1025.27 1025.14 1025.26 1025.05 1025.09 1025.42 1025.42 1025.49 1025.56 1025.59 1025.46 1025.52 1025.34
1018.65 1019.06 1019.47 1019.96 1020.41 1020.88 1021.60 1022.10 1022.20 1022.34 1022.56 1022.94 1023.47 1023.96 1024.23 1024.53 1024.56 1024.49 1024.42 1024.51 1024.68 1024.68 1024.58 1024.58 1024.84 1024.80 1024.90 1025.29 1025.14 1025.04 1025.24 1025.59 1025.64 1025.56 1025.57 1025.53 1025.41 1025.45
1019.23 1019.72 1020.14 1020.55 1020.88 1021.29 1021.79 1022.10 1022.35 1022.39 1022.34 1022.70 1023.10 1023.38 1023.77 1023.91 1023.94 1023.98 1024.02 1024.19 1023.91 1024.76 1024.61 1024.28 1024.99 1024.55 1024.65 1024.75 1025.13 1025.16 1025.32 1025.47 1025.68 1025.51 1025.49 1025.48 1025.39 1025.13
1020.12 1020.61 1021.08 1021.44 1021.57 1021.72 1021.92 1022.32 1022.62 1022.62 1022.48 1022.41 1022.89 1023.38 1023.72 1024.06 1024.17 1024.24 1024.18 1024.27 1024.12 1024.55 1025.07 1024.41 1024.72 1024.48 1024.51 1024.69 1025.27 1025.05 1025.32 1025.44 1025.61 1025.48 1025.36 1025.20 1025.03 1024.84
1020.95 1021.33 1021.62 1021.87 1022.03 1022.12 1022.26 1022.76 1022.86 1023.31 1023.14 1023.33 1023.93 1024.28 1024.46 1024.67 1024.65 1024.71 1024.85 1024.90 1024.97 1025.28 1025.60 1024.68 1024.64 1024.32 1024.38 1024.55 1025.03 1025.21 1025.28 1025.31 1025.44 1025.34 1025.20 1025.00 1024.83 1024.66
1021.50 1021.67 1021.86 1022.24 1022.75 1022.75 1022.74 1023.03 1023.42 1024.05 1024.61 1024.78 1025.04 1025.24 1025.36 1025.48 1025.40 1024.92 1025.11 1024.84 1024.71 1025.16 1025.67 1025.19 1024.68 1024.72 1024.36 1024.36 1024.36 1025.07 1025.22 1025.21 1025.19 1025.15 1024.97 1024.87 1024.67 1024.42
1021.96 1022.42 1022.73 1022.89 1023.20 1023.07 1023.03 1023.41 1023.72 1024.20 1024.52 1024.84 1025.10 1025.29 1025.25 1025.69 1025.87 1025.56 1025.57 1025.29 1025.38 1025.10 1025.69 1025.63 1025.40 1025.46 1024.66 1024.46 1024.66 1024.64 1024.39 1024.60 1024.83 1024.88 1024.72 1024.62 1024.49 1024.05
1022.09 1022.61 1023.26 1023.70 1023.98 1024.16 1023.93 1023.95 1024.37 1024.73 1025.16 1025.09 1025.12 1025.17 1025.18 1025.35 1025.46 1025.70 1025.75 1025.76 1025.79 1025.79 1025.89 1025.84 1025.64 1025.58 1025.54 1025.30 1025.03 1024.73 1024.40 1024.20 1024.09 1023.94 1023.90 1024.24 1024.25 1024.11
1022.82 1023.46 1024.02 1024.25 1024.46 1024.57 1024.49 1024.98 1025.32 1025.20 1025.18 1025.21 1025.26 1025.36 1025.41 1025.45 1025.56 1025.89 1026.01 1025.99 1025.89 1025.89 1025.87 1025.89 1025.83 1025.74 1025.56 1025.43 1025.12 1024.67 1024.36 1024.20 1024.02 1023.86 1023.76 1023.64 1023.57 1023.44
1023.61 1024.31 1024.71 1024.78 1024.95 1025.27 1025.54 1025.61 1025.55 1025.42 1025.53 1025.54 1025.60 1025.78 1025.98 1026.10 1026.07 1026.15 1026.17 1026.12 1025.94 1025.82 1025.79 1025.76 1025.70 1025.69 1025.68 1025.43 1025.12 1024.72 1024.53 1024.18 1023.79 1023.87 1023.53 1023.28 1023.05 1022.75
1024.59 1024.73 1025.17 1025.46 1025.68 1025.91 1025.83 1025.89 1025.88 1026.10 1026.13 1026.11 1026.18 1026.47 1026.62 1026.68 1026.57 1026.50 1026.44 1026.29 1026.06 1025.94 1025.83 1025.80 1025.68 1025.56 1025.34 1025.09 1024.97 1024.70 1024.41 1024.26 1023.86 1023.56 1023.41 1023.16 1022.66 1022.25
1024.86 1025.24 1025.53 1025.68 1025.91 1026.13 1026.34 1026.49 1026.58 1026.60 1026.65 1026.75 1026.78 1026.93 1027.13 1027.09 1026.96 1027.02 1027.03 1026.89 1026.35 1026.17 1026.01 1025.78 1025.70 1025.55 1025.22 1024.96 1024.63 1024.42 1024.32 1024.24 1024.06 1023.84 1023.61 1023.15 1022.64 1022.28
1025.02 1025.19 1025.52 1025.73 1025.92 1026.20 1026.40 1026.64 1026.91 1027.03 1027.16 1027.29 1027.55 1027.69 1027.67 1027.64 1027.51 1027.35 1027.14 1026.96 1026.72 1026.58 1026.31 1026.03 1025.88 1025.66 1025.26 1024.65 1024.59 1024.36 1024.40 1024.28 1024.08 1023.95 1023.62 1023.04 1022.30 1021.91
1025.12 1025.44 1025.73 1025.96 1026.24 1026.49 1026.64 1026.82 1027.04 1027.42 1027.71 1027.81 1027.88 1027.93 1027.88 1027.73 1027.73 1027.61 1027.43 1027.26 1027.00 1026.67 1026.43 1026.41 1026.24 1025.96 1025.43 1024.80 1024.73 1024.85 1024.41 1024.18 1023.84 1023.53 1023.23 1022.70 1022.19 1021.57
1025.53 1025.73 1025.96 1026.23 1026.49 1026.75 1027.05 1027.24 1027.40 1027.69 1027.93 1028.15 1028.26 1028.34 1028.40 1028.30 1028.25 1028.10 1027.85 1027.64 1027.31 1027.11 1026.82 1026.48 1026.35 1026.16 1025.86 1025.42 1024.98 1024.46 1024.22 1023.99 1023.64 1023.30 1022.88 1022.50 1021.95 1021.41
1025.71 1026.02 1026.28 1026.55 1026.83 1027.10 1027.37 1027.59 1027.70 1027.78 1028.00 1028.14 1028.34 1028.43 1028.49 1028.60 1028.48 1028.31 1028.18 1027.92 1027.68 1027.34 1026.89 1026.57 1026.36 1025.93 1025.63 1025.45 1024.88 1024.30 1023.52 1023.44 1023.43 1023.22 1022.85 1022.34 1021.80 1021.23
1025.75 1026.20 1026.51 1026.76 1027.03 1027.28 1027.50 1027.70 1027.84 1027.97 1028.09 1028.32 1028.54 1028.63 1028.72 1028.59 1028.46 1028.46 1028.36 1028.13 1027.86 1027.50 1027.02 1026.62 1026.13 1025.79 1025.47 1025.20 1024.71 1024.11 1023.12 1022.73 1022.59 1022.53 1022.57 1022.59 1022.30 1021.81
1025.79 1026.23 1026.58 1026.81 1027.08 1027.31 1027.53 1027.71 1027.85 1028.08 1028.48 1028.69 1028.76 1028.87 1028.89 1028.77 1028.69 1028.58 1028.40 1028.12 1027.82 1027.47 1026.99 1026.55 1026.12 1025.74 1025.17 1024.67 1024.25 1023.71 1023.09 1022.56 1022.34 1021.99 1021.73 1021.68 1021.83 1021.59
Wind_Speed
11 10 5 4 3 2 4 5 4 4 6 6 4 5 3 3 3 6 4 8 9 9 7 6 4 2 3 4 4 4 4 4 6 6 8 8 8 9
7 11 8 4 5 3 3 3 3 3 1 2 2 2 4 2 4 1 4 5 7 7 5 5 3 2 2 2 1 2 3 3 4 8 8 7 8 6
8 12 11 11 6 4 4 2 1 1 7 3 2 3 3 4 4 4 4 3 2 1 3 5 5 3 2 2 1 3 2 3 5 7 7 6 6 8
10 11 11 9 8 6 4 3 2 1 3 3 1 2 3 3 3 3 3 2 1 4 6 5 5 6 4 3 3 3 4 4 5 6 7 6 7 7
11 10 10 12 8 5 4 3 2 1 2 3 3 1 2 1 2 2 1 1 0 0 0 2 3 4 4 4 1 3 3 3 4 5 6 8 8 8
9 8 7 8 10 8 5 4 3 3 3 4 3 2 2 1 1 1 1 2 3 1 2 4 5 4 3 4 1 2 1 1 3 3 4 5 7 9
8 8 8 9 12 9 5 4 4 3 4 3 3 2 2 3 5 4 5 3 4 1 3 3 3 3 3 4 2 2 5 4 2 4 6 8 10 11
10 9 10 14 14 16 13 10 6 4 5 3 3 3 4 4 3 3 3 4 4 2 4 5 2 5 4 5 4 6 6 2 5 6 8 10 11 12
11 10 9 8 11 11 16 16 15 14 11 4 5 4 4 3 1 2 2 3 4 3 5 6 0 5 2 3 3 5 2 1 6 8 10 11 12 12
10 10 11 11 10 10 10 10 10 10 9 7 8 8 7 5 5 5 5 4 2 1 4 6 2 5 2 5 5 4 3 3 7 10 11 11 13 12
11 11 11 11 12 10 9 9 10 10 12 15 14 12 10 9 5 1 2 3 1 1 0 5 2 6 5 5 3 5 6 6 8 12 12 13 13 14
11 12 14 11 11 7 6 6 7 7 6 7 7 7 5 6 2 4 3 4 4 2 1 4 4 4 5 1 2 5 5 11 6 11 12 13 12 8
8 8 8 12 11 9 5 5 7 5 5 4 3 3 3 4 3 2 4 4 4 3 3 3 4 3 3 4 4 6 6 6 7 7 9 8 8 9
9 8 9 13 13 10 8 11 9 4 3 2 2 3 4 4 4 3 3 4 4 5 5 5 4 5 5 5 7 6 6 6 5 6 5 7 10 12
8 13 14 13 14 12 12 10 4 3 2 1 3 3 4 5 5 4 4 5 6 4 4 5 5 6 5 6 7 7 7 7 5 4 6 7 7 7
13 9 11 11 11 8 6 5 4 4 4 3 3 3 3 3 3 4 5 4 5 3 4 4 5 6 7 7 6 7 6 4 7 7 6 8 8 7
10 6 5 5 5 5 4 4 3 3 3 3 3 4 4 4 3 4 4 5 4 4 5 5 5 7 7 8 7 6 5 5 6 7 8 8 7 8
6 5 5 4 4 4 4 4 3 3 3 3 3 3 2 3 3 1 3 4 5 5 5 5 6 6 6 6 5 5 4 6 6 7 8 8 8 7
5 4 4 4 4 3 3 3 3 3 4 2 3 3 4 4 5 4 4 5 5 4 4 5 5 5 7 7 2 6 7 7 7 6 7 8 9 9
4 4 4 4 4 3 3 2 3 3 2 2 2 3 2 3 3 4 5 5 6 6 6 5 4 4 6 6 8 8 8 7 7 8 8 7 9 14
4 4 3 4 4 3 3 2 2 2 2 1 2 2 3 2 2 3 4 7 7 6 6 6 7 11 6 6 6 7 8 10 6 8 9 9 8 7
5 4 4 4 4 4 3 3 2 2 2 1 2 2 3 2 3 4 4 5 5 6 7 6 7 6 7 6 8 11 8 7 7 9 10 9 6 5
6 5 4 4 4 4 3 3 2 2 2 1 1 2 2 3 4 4 5 5 5 6 7 7 7 7 7 8 9 8 12 9 7 8 8 3 8 12
Wind_Direction
187 172 167 137 136 157 138 113 123 137 201 188 180 203 183 194 150 210 222 122 122 127 132 124 113 99 76 62 43 28 14 5 360 353 345 346 335 336
178 174 139 133 99 90 70 96 128 136 248 39 163 153 153 172 79 139 75 126 134 128 131 146 162 137 99 102 77 58 6 6 356 356 338 341 324 353
156 160 152 139 134 106 68 313 53 1 264 118 87 95 109 117 92 63 69 83 106 213 219 210 209 188 172 186 230 287 330 29 3 342 342 320 349 357
135 135 132 130 107 117 121 184 112 222 122 157 76 74 73 72 72 80 67 85 84 172 264 264 275 218 214 244 304 323 100 49 10 359 359 346 353 336
128 126 131 119 120 121 132 116 93 54 73 127 136 107 88 96 85 76 97 62 278 83 217 45 335 273 228 284 217 98 87 40 5 348 344 336 322 313
121 122 122 123 135 147 140 139 148 129 120 109 101 104 104 134 131 150 180 234 209 208 83 34 22 59 54 13 221 178 181 332 312 333 352 342 335 325
95 100 100 115 119 113 119 143 141 129 120 103 106 124 150 159 194 183 225 187 197 269 264 246 282 251 206 219 246 232 213 256 289 308 321 327 313 305
99 87 93 98 106 110 109 106 116 123 116 125 148 136 122 134 174 205 232 223 233 127 284 265 256 267 254 258 28 282 227 194 335 311 307 302 296 297
92 94 92 94 103 107 99 92 78 68 51 75 102 78 96 46 324 243 257 292 293 66 296 278 292 277 263 246 358 197 170 350 313 299 295 295 299 297
94 106 118 115 104 106 102 94 80 67 65 74 80 77 72 52 29 7 354 337 273 259 311 277 36 287 286 278 162 254 235 297 293 294 290 297 302 294
101 98 104 99 95 99 104 103 100 95 86 86 88 88 87 73 41 350 36 294 315 157 284 308 345 312 302 303 297 196 263 286 290 290 283 293 294 293
102 89 69 86 83 67 99 114 112 111 112 117 113 117 119 122 53 23 9 6 354 327 109 310 349 342 317 63 292 309 270 236 260 269 280 288 287 276
97 87 80 85 86 82 66 91 101 118 103 102 80 52 30 32 17 8 1 349 341 326 34 312 312 315 285 304 306 297 296 300 295 287 258 252 263 281
99 96 94 97 92 90 88 105 92 79 57 47 24 14 359 2 18 353 336 316 314 312 319 302 290 299 298 302 302 307 311 309 297 300 295 283 263 259
95 94 94 89 89 78 71 79 94 68 73 6 11 11 5 355 344 338 326 315 307 303 295 305 303 305 299 289 287 310 308 301 303 266 296 298 299 290
112 99 87 83 76 92 93 76 60 48 30 34 25 16 347 336 335 340 332 329 313 324 316 332 317 304 298 302 305 297 300 301 316 306 308 304 294 288
117 118 113 109 107 101 87 79 83 75 68 46 18 14 1 345 348 14 357 323 317 333 324 322 317 309 299 295 292 298 307 307 316 317 311 301 305 303
123 115 109 111 107 102 94 98 77 74 52 38 32 15 1 332 319 326 317 317 320 323 310 325 329 322 318 305 277 304 305 314 316 308 304 292 298 289
117 113 111 117 118 117 104 90 93 76 56 30 29 8 357 0 334 356 333 327 322 331 335 335 326 322 317 318 324 254 306 310 304 301 295 309 308 300
129 128 127 135 136 134 125 116 114 119 95 58 45 35 14 359 353 341 342 341 335 339 325 324 326 321 319 319 307 304 278 289 309 308 309 299 291 297
143 141 140 140 142 139 121 117 124 112 103 93 56 20 13 2 332 330 329 334 331 319 319 329 320 312 302 312 299 308 309 210 252 299 308 311 316 306
149 152 149 148 143 140 138 144 158 166 129 81 36 21 13 322 343 345 338 335 333 327 320 323 318 325 318 318 308 300 307 320 298 226 242 259 299 296
153 160 157 148 147 145 151 160 159 116 89 80 14 22 359 343 341 343 336 330 324 321 318 325 328 315 307 303 311 308 313 323 323 323 319 222 247 282